User: anonymous   Login
Location: Geremba
(10.4250°N, 67.2394°W)
Time: 04:50:52
(UTC+00:00)
Language:

ATLAS 2AS CENTAUR R/B - Orbit

View from above orbital plane
View from above orbital plane
View from above satellite
View from above satellite

Ground track
Ground track

The orbit data is extracted from the following two-line orbital elements,

1 28096U 03054B   24194.60613899 -.00000021  00000-0  11463-3 0  9991
2 28096  63.6801  13.8878 0115907 167.7810 192.6071 13.40978245  7937
Epoch (UTC): 12 July 2024 14:32:50
Eccentricity: 0.0115907
inclination: 63.6801°
perigee height: 1019 km
apogee height: 1192 km
right ascension of ascending node: 13.8878°
argument of perigee: 167.7810°
revolutions per day: 13.40978245
mean anomaly at epoch: 192.6071°
orbit number at epoch: 793

The dashed part of the orbit path shows where the satellite is in the earth's shadow,  

DLR